Location: Chippewa Lake
(41.0698°N, 81.9010°W)
Time: 21:01:34
(UTC+00:00)

Cosmos 2369 Rocket - Pass Details

Date: 09 May 2021
Orbit: 827 x 854 km, 71.0° (Epoch: 16 June)

Event Time Altitude Azimuth Distance (km) Brightness Sun altitude
Exits shadow 04:08:57 16° 69° (ENE) 2,064 4.2 -29.0°
Drops below altitude 10° 04:10:36 10° 54° (NE) 2,451 4.8 -29.1°
Sets 04:13:38 0° 39° (NE) 3,396 5.7 -29.3°
